Theta_e
333 331 330 330 329 328 326 323 323 321 320 319 318 316 313 312 308 309 309 309 309 308
335 332 330 331 330 329 328 326 323 321 320 319 317 314 311 309 308 308 308 309 308 305
334 334 332 331 329 329 328 326 322 320 320 318 316 314 311 309 308 308 307 307 306 303
332 331 331 330 330 329 328 326 321 320 318 316 314 313 310 310 308 307 306 307 304 303
331 333 331 329 329 329 327 324 321 320 317 315 313 312 310 309 308 306 305 304 303 303
323 327 330 328 328 327 325 320 318 316 315 314 313 311 310 309 307 306 304 304 303 302
317 317 319 318 319 321 321 318 316 315 315 313 312 310 308 308 307 306 305 304 303 300
301 304 310 309 304 308 313 314 314 312 312 312 311 308 307 307 306 305 303 301 301 298
301 300 299 299 300 303 299 300 305 305 308 307 307 301 302 304 302 301 300 297 297 298
301 300 298 299 296 295 296 297 297 296 303 303 303 296 296 296 300 296 293 293 293 294
298 297 297 297 295 294 293 294 293 294 295 294 294 293 293 293 296 295 294 294 295 294
295 295 293 292 291 291 291 290 290 291 292 291 290 291 291 292 292 290 290 291 293 293
295 293 291 290 290 290 289 288 288 287 289 290 289 291 291 291 290 288 288 289 290 290
294 291 290 288 287 287 287 287 286 286 287 288 289 290 291 291 289 288 288 287 287 288
Wind_Speed
23 16 17 18 14 14 15 15 19 20 20 21 20 18 19 17 17 20 18 22 18 15
20 22 18 20 17 14 16 13 18 20 21 20 19 18 19 15 19 19 20 19 18 15
18 19 19 17 19 18 15 17 17 19 21 20 19 20 20 18 18 20 17 14 20 16
15 16 15 17 16 18 17 18 19 19 20 19 20 20 19 19 18 21 20 19 18 17
12 15 14 15 16 16 14 14 18 20 21 21 21 22 24 23 19 21 18 15 15 16
8 9 14 15 16 15 16 17 16 17 20 21 22 22 23 23 20 22 22 22 20 23
11 6 5 4 8 14 17 18 20 22 23 23 22 21 21 21 20 21 19 20 20 17
7 8 3 4 6 5 9 13 14 17 17 17 17 15 18 18 18 17 17 16 17 18
7 5 2 3 2 3 3 2 7 11 13 14 12 15 21 19 17 18 18 18 17 15
5 6 3 2 5 5 5 6 6 4 4 9 8 16 16 15 11 12 14 15 15 14
3 3 2 3 4 4 4 7 7 7 7 6 3 13 14 13 10 8 11 12 14 14
4 4 3 5 4 4 6 5 5 8 9 9 9 19 17 14 9 9 8 8 10 12
6 7 6 5 6 4 6 7 7 9 5 14 12 17 19 13 8 9 8 6 9 13
7 7 6 5 3 8 9 7 10 11 7 9 10 14 18 13 6 7 7 7 6 6
Wind_Direction
212 213 215 212 208 208 204 199 197 198 198 201 200 197 193 192 196 195 196 194 194 193
217 215 215 214 212 210 209 205 196 194 196 196 194 193 195 198 197 199 199 196 193 193
228 222 218 215 216 213 209 197 191 193 196 189 187 188 196 198 200 198 198 197 196 189
232 230 219 216 215 214 205 196 188 186 190 191 186 188 195 203 199 205 199 198 194 196
258 231 216 212 212 206 202 201 197 189 187 188 191 190 191 197 192 193 206 194 184 190
283 263 226 217 207 201 199 188 186 188 190 192 194 195 199 195 188 185 182 182 192 192
304 272 254 260 215 196 192 191 191 193 195 195 196 193 193 188 190 186 189 186 185 184
310 306 261 185 184 210 208 196 198 198 197 195 197 192 193 185 187 185 179 175 173 171
285 283 304 101 124 157 143 242 187 193 195 192 190 192 194 183 178 176 175 173 170 163
280 285 287 136 123 121 117 120 115 86 197 184 183 166 168 164 165 164 167 167 158 157
235 226 268 106 91 97 114 121 117 107 101 94 88 123 124 115 134 154 155 162 163 151
188 151 134 98 96 80 99 86 92 111 110 111 116 113 112 111 105 119 116 127 129 140
154 139 130 120 117 90 92 108 96 77 98 114 118 109 108 108 118 109 104 90 113 129
137 126 120 104 112 116 105 98 95 91 67 91 114 105 101 109 108 121 118 129 115 122